www.pogodaiklimat.ru

Погода и климат >> Архив погоды >> Италия >> Дезенцано


ПОГОДА в Дезенцано

  • Прогноз погоды в Дезенцано
  • Монитор погоды в Дезенцано

АРХИВ ПОГОДЫ в Дезенцано

Время (UTC), дата Ветер
(напр.,м/с)
 
Видим.   Явления Облачность Т
(С)
Тd
(С)
f
(%)
Тe
(С)
Тes
(С)
Комфортность P
(гПа)
Po
(гПа)
Тmin
(С)
Tmax
(С)
R
(мм)
R24
(мм)
S
(см)
10 11.06 С 2 н/о н/о +25.4 +22.0 81 +33 +33 очень
душно
1008.6 1001.0
11 11.06 СВ 1 н/о н/о +25.9 +21.7 78 +33 +33 очень
душно
1008.3 1000.7
12 11.06 СЗ 2 н/о н/о +26.6 +22.6 79 +35 +35 очень
душно
1008.0 1000.4
13 11.06 С 1 н/о н/о +25.9 +22.3 81 +34 +34 очень
душно
1008.0 1000.4
14 11.06 В 4 н/о н/о +28.6 +21.1 64 +36 +36 очень
душно
1007.2 999.7
15 11.06 В 2 н/о н/о +29.5 +20.3 58 +36 +36 очень
душно
1007.2 999.7
16 11.06 В 4 н/о н/о +29.1 +20.2 59 +36 +36 очень
душно
1007.0 999.5
17 11.06 В 4 н/о н/о +28.9 +19.2 56 +34 +34 очень
душно
1006.7 999.2
18 11.06 Ю 3 н/о н/о +27.7 +21.2 68 +35 +35 очень
душно
1007.0 999.5 +29.5
19 11.06 штиль 0 н/о н/о +26.4 +21.1 73 +33 +33 очень
душно
1007.7 1000.2
20 11.06 штиль 0 н/о н/о +25.4 +22.0 81 +33 +33 очень
душно
1007.8 1000.2
21 11.06 штиль 0 н/о н/о +25.3 +23.5 90 +34 +34 очень
душно
1007.8 1000.2
22 11.06 штиль 0 н/о н/о +25.0 +21.7 82 +32 +32 очень
душно
1008.1 1000.5
23 11.06 ЮВ 1 н/о н/о +25.1 +19.9 73 +31 +31 очень
душно
1008.4 1000.8
00 12.06 В 2 н/о н/о +25.8 +18.9 66 +31 +31 очень
душно
1008.2 1000.6
01 12.06 В 2 н/о н/о +25.8 +18.4 64 +31 +31 очень
душно
1008.0 1000.4
02 12.06 СВ 2 н/о н/о +25.2 +20.4 75 +31 +31 очень
душно
1007.6 1000.0
03 12.06 штиль 0 н/о н/о +24.3 +21.2 83 +31 +31 очень
душно
1007.4 999.8
04 12.06 штиль 0 н/о н/о +23.6 +20.9 85 +30 +30 очень
душно
1007.6 1000.0
05 12.06 штиль 0 н/о н/о +24.0 +21.8 88 +31 +31 очень
душно
1008.0 1000.4
06 12.06 Ю 1 н/о н/о +24.6 +22.2 87 +32 +32 очень
душно
1008.3 1000.7 +23.4 702
07 12.06 В 1 н/о н/о +25.4 +21.6 80 +33 +33 очень
душно
1008.4 1000.8
08 12.06 СВ 2 н/о н/о +26.0 +22.2 80 +34 +34 очень
душно
1008.4 1000.8
09 12.06 В 3 н/о н/о +26.5 +20.5 70 +33 +33 очень
душно
1008.7 1001.2
10 12.06 В 4 н/о н/о +27.8 +20.1 63 +34 +34 очень
душно
1008.8 1001.3
11 12.06 В 3 н/о н/о +28.2 +19.9 61 +34 +34 очень
душно
1008.8 1001.3
12 12.06 ЮВ 2 н/о н/о +29.6 +18.7 52 +35 +35 очень
душно
1008.9 1001.4
13 12.06 В 2 н/о н/о +29.6 +19.0 53 +35 +35 очень
душно
1008.6 1001.1
14 12.06 ЮВ 1 н/о н/о +29.5 +17.3 48 +34 +34 очень
душно
1008.6 1001.1
15 12.06 ЮВ 1 н/о н/о +29.6 +16.4 45 +33 +33 душно 1008.6 1001.1
16 12.06 ЮВ 1 н/о н/о +29.4 +14.4 40 +31 +31 жарко 1008.6 1001.1
17 12.06 Ю 2 н/о н/о +29.1 +15.6 44 +32 +32 душно 1008.5 1001.0
18 12.06 Ю 2 н/о н/о +28.6 +14.4 42 +31 +31 жарко 1009.0 1001.5 +29.9
19 12.06 Ю 2 н/о н/о +27.8 +13.7 42 +30 +30 жарко 1009.5 1002.0
20 12.06 ЮЗ 2 н/о н/о +26.4 +13.8 46 +29 +29 жарко 1010.2 1002.6
21 12.06 ЮЗ 1 н/о н/о +25.6 +13.4 47 +28 +28 жарко 1010.7 1003.1
22 12.06 ЮЗ 1 н/о н/о +25.2 +16.3 58 +29 +29 душно 1011.1 1003.5
23 12.06 ЮЗ 2 н/о н/о +24.4 +17.8 67 +29 +29 душно 1011.1 1003.5
00 13.06 СЗ 2 н/о н/о +24.0 +19.4 75 +29 +29 душно 1011.4 1003.8
01 13.06 ЮЗ 4 н/о н/о +22.9 +13.0 54 +26 +26 жарко 1011.6 1003.9
02 13.06 ЮЗ 3 н/о н/о +22.2 +10.3 47 +24 +24 комфорт 1011.8 1004.1
03 13.06 ЮЗ 1 н/о н/о +21.7 +11.4 52 +24 +24 комфорт 1012.0 1004.3
04 13.06 СЗ 1 н/о н/о +21.5 +12.0 55 +24 +24 комфорт 1012.5 1004.8
05 13.06 ЮЗ 2 н/о н/о +22.1 +13.4 58 +25 +25 комфорт 1013.0 1005.3
06 13.06 СЗ 1 н/о н/о +23.7 +15.1 59 +27 +27 жарко 1013.6 1005.9 +21.3 201
07 13.06 штиль 0 н/о н/о +23.7 +16.4 64 +27 +27 жарко 1014.1 1006.4
08 13.06 СВ 1 н/о н/о +24.6 +19.1 71 +30 +30 очень
душно
1014.4 1006.8
09 13.06 ЮЗ 2 н/о н/о +26.7 +14.4 47 +29 +29 жарко 1014.7 1007.1
10 13.06 ЮЗ 2 н/о н/о +27.6 +14.9 46 +30 +30 жарко 1014.8 1007.2
11 13.06 ЮЗ 2 н/о н/о +28.3 +12.6 38 +30 +30 жарко 1014.8 1007.3
12 13.06 С 1 н/о н/о +29.1 +12.5 36 +30 +30 жарко 1014.6 1007.1
13 13.06 ЮЗ 2 н/о н/о +29.1 +9.8 30 +29 +29 жарко 1014.5 1007.0
14 13.06 Ю 1 н/о н/о +29.1 +10.7 32 +29 +29 жарко 1014.7 1007.2
15 13.06 СЗ 1 н/о н/о +27.7 +15.0 46 +30 +30 жарко 1014.7 1007.1
16 13.06 Ю 2 н/о н/о +27.6 +10.3 34 +28 +28 жарко 1014.8 1007.2
17 13.06 Ю 1 н/о н/о +28.1 +11.6 36 +29 +29 жарко 1014.9 1007.3
18 13.06 штиль 0 н/о н/о +26.9 +13.2 43 +29 +29 жарко 1015.4 1007.8 +29.6
19 13.06 штиль 0 н/о н/о +26.1 +11.4 40 +27 +27 жарко 1015.5 1007.9
20 13.06 штиль 0 н/о н/о +24.9 +15.7 57 +28 +28 жарко 1016.3 1008.7
21 13.06 штиль 0 н/о н/о +24.0 +15.1 57 +27 +27 жарко 1017.0 1009.3
22 13.06 штиль 0 н/о н/о +23.3 +14.8 59 +27 +27 душно 1017.2 1009.5
23 13.06 штиль 0 н/о н/о +22.7 +13.4 56 +26 +26 жарко 1017.5 1009.8
00 14.06 З 1 н/о н/о +22.5 +15.3 64 +26 +26 жарко 1017.4 1009.7
01 14.06 СЗ 3 н/о н/о +23.2 +14.9 60 +27 +27 душно 1017.1 1009.4
02 14.06 СЗ 2 н/о н/о +23.7 +15.7 61 +27 +27 жарко 1017.3 1009.6
03 14.06 СЗ 3 н/о н/о +23.5 +15.2 60 +26 +26 жарко 1017.1 1009.4
04 14.06 СЗ 2 н/о н/о +22.9 +14.9 61 +27 +27 душно 1017.1 1009.4
05 14.06 СЗ 5 н/о н/о +23.5 +14.7 58 +26 +26 жарко 1017.6 1009.9
06 14.06 СЗ 8 н/о н/о +23.8 +16.7 64 +27 +27 жарко 1018.3 1010.6 +22.3 316
07 14.06 С 7 н/о н/о +23.6 +16.8 66 +27 +27 жарко 1018.8 1011.1
08 14.06 С 4 н/о н/о +24.0 +18.6 72 +29 +29 душно 1018.6 1010.9
09 14.06 СЗ 3 н/о н/о +23.9 +19.8 78 +29 +29 душно 1018.5 1010.8
10 14.06 С 2 н/о н/о +24.6 +20.0 76 +30 +30 очень
душно
1018.3 1010.6
11 14.06 СЗ 2 н/о н/о +25.0 +19.1 70 +30 +30 душно 1018.1 1010.4
12 14.06 С 1 н/о н/о +25.8 +19.4 68 +31 +31 очень
душно
1017.2 1009.6
13 14.06 С 1 н/о н/о +26.4 +19.2 65 +32 +32 очень
душно
1016.5 1008.9
14 14.06 штиль 0 н/о н/о +27.0 +19.8 65 +33 +33 очень
душно
1016.1 1008.5
15 14.06 В 3 н/о н/о +28.1 +17.0 51 +32 +32 душно 1015.4 1007.8
16 14.06 В 3 н/о н/о +29.0 +17.2 49 +33 +33 очень
душно
1014.9 1007.4
17 14.06 В 2 н/о н/о +28.9 +17.1 49 +33 +33 очень
душно
1014.7 1007.2
18 14.06 В 2 н/о н/о +28.6 +16.8 49 +32 +32 душно 1014.7 1007.2 +29.2
19 14.06 Ю 1 н/о н/о +27.9 +16.8 51 +32 +32 душно 1015.2 1007.6
20 14.06 СВ 1 н/о н/о +26.8 +16.7 54 +30 +30 душно 1014.5 1006.9
21 14.06 В 1 н/о н/о +26.1 +16.0 54 +29 +29 жарко 1014.7 1007.1
22 14.06 З 1 н/о н/о +25.7 +18.8 66 +31 +31 очень
душно
1015.7 1008.1
23 14.06 штиль 0 н/о н/о +25.4 +18.5 66 +30 +30 душно 1013.8 1006.2
00 15.06 штиль 0 н/о н/о +24.4 +20.7 80 +30 +30 очень
душно
1013.5 1005.9
01 15.06 Ю 1 н/о н/о +23.9 +17.6 68 +28 +28 душно 1013.8 1006.1
02 15.06 штиль 0 н/о н/о +24.0 +16.4 62 +27 +27 жарко 1013.6 1005.9
03 15.06 штиль 0 н/о н/о +23.1 +16.1 65 +28 +28 душно 1013.4 1005.7
04 15.06 С 1 н/о н/о +23.1 +18.8 77 +29 +29 очень
душно
1013.5 1005.8
05 15.06 штиль 0 н/о н/о +23.3 +18.5 74 +29 +29 душно 1013.3 1005.6
06 15.06 штиль 0 н/о н/о +24.6 +21.1 81 +31 +31 очень
душно
1013.5 1005.9 +22.6 0
07 15.06 СЗ 2 н/о н/о +25.2 +20.2 74 +31 +31 очень
душно
1013.9 1006.3
08 15.06 СВ 1 н/о н/о +25.9 +19.9 70 +32 +32 очень
душно
1013.9 1006.3
09 15.06 СВ 2 н/о н/о +26.6 +22.0 76 +34 +34 очень
душно
1013.9 1006.3
10 15.06 СЗ 1 н/о н/о +26.8 +19.1 63 +32 +32 очень
душно
1013.6 1006.0
11 15.06 Ю 1 н/о н/о +29.7 +19.1 53 +35 +35 очень
душно
1013.2 1005.7
12 15.06 С 1 н/о н/о +29.9 +18.3 50 +35 +35 очень
душно
1013.0 1005.5
13 15.06 ЮВ 2 н/о н/о +30.9 +19.2 50 +37 +37 очень
душно
1012.7 1005.2
14 15.06 Ю 2 н/о н/о +30.5 +19.5 52 +36 +36 очень
душно
1012.5 1005.0
15 15.06 З 2 н/о н/о +29.8 +19.7 55 +36 +36 очень
душно
1012.1 1004.6
16 15.06 ЮЗ 2 н/о н/о +29.3 +19.3 55 +35 +35 очень
душно
1011.7 1004.2
17 15.06 ЮЗ 1 н/о н/о +29.2 +19.2 55 +35 +35 очень
душно
1011.6 1004.1
18 15.06 Ю 1 н/о н/о +28.6 +18.9 56 +34 +34 очень
душно
1011.3 1003.8 +31.5
19 15.06 ЮЗ 1 н/о н/о +27.7 +19.2 60 +33 +33 очень
душно
1011.5 1004.0
20 15.06 ЮЗ 2 н/о н/о +26.7 +19.3 64 +32 +32 очень
душно
1012.4 1004.8
21 15.06 ЮЗ 1 н/о н/о +26.3 +19.6 67 +32 +32 очень
душно
1012.6 1005.0
22 15.06 ЮЗ 2 н/о н/о +26.1 +20.1 70 +32 +32 очень
душно
1012.7 1005.1
23 15.06 ЮВ 2 н/о н/о +25.7 +19.5 69 +31 +31 очень
душно
1012.7 1005.1
00 16.06 Ю 2 н/о н/о +24.8 +19.6 73 +30 +30 душно 1012.5 1004.9
01 16.06 ЮЗ 3 н/о н/о +24.2 +19.2 74 +29 +29 душно 1012.2 1004.6
02 16.06 ЮЗ 2 н/о н/о +23.9 +18.5 72 +28 +28 душно 1012.2 1004.6
03 16.06 ЮЗ 3 н/о н/о +23.4 +19.3 78 +30 +30 очень
душно
1012.5 1004.8
04 16.06 ЮЗ 2 н/о н/о +22.5 +19.4 83 +29 +29 очень
душно
1012.9 1005.2
05 16.06 ЮЗ 2 н/о н/о +23.1 +20.4 85 +30 +30 очень
душно
1012.9 1005.2
06 16.06 ЮЗ 1 н/о н/о +24.1 +20.4 80 +30 +30 очень
душно
1013.2 1005.6 +22.5 302
07 16.06 ЮЗ 1 н/о н/о +25.1 +20.1 74 +31 +31 очень
душно
1013.6 1006.0
08 16.06 ЮЗ 1 н/о н/о +26.3 +19.6 67 +32 +32 очень
душно
1013.7 1006.1
09 16.06 ЮЗ 2 н/о н/о +27.5 +19.2 61 +33 +33 очень
душно
1013.7 1006.1
10 16.06 ЮЗ 2 н/о н/о +28.7 +18.1 53 +33 +33 очень
душно
1013.4 1005.9
11 16.06 СВ 1 н/о н/о +29.6 +18.0 50 +34 +34 очень
душно
1013.2 1005.7
12 16.06 ЮЗ 2 н/о н/о +30.7 +17.7 46 +35 +35 очень
душно
1012.9 1005.4
13 16.06 СЗ 2 н/о н/о +31.3 +19.0 48 +37 +37 очень
душно
1012.6 1005.1
14 16.06 ЮВ 2 н/о н/о +31.4 +18.0 45 +36 +36 очень
душно
1012.2 1004.7
15 16.06 ЮЗ 2 н/о н/о +30.7 +16.3 42 +34 +34 очень
душно
1012.0 1004.5
16 16.06 З 1 н/о н/о +30.2 +14.7 39 +32 +32 жарко 1011.8 1004.3
17 16.06 ЮЗ 2 н/о н/о +29.9 +14.4 39 +32 +32 жарко 1011.6 1004.1
18 16.06 Ю 2 н/о н/о +29.2 +15.3 43 +32 +32 душно 1011.7 1004.2 +31.7
19 16.06 Ю 1 н/о н/о +28.0 +14.9 45 +31 +31 душно 1011.7 1004.2
20 16.06 Ю 1 н/о н/о +27.0 +14.7 47 +30 +30 душно 1012.1 1004.5
21 16.06 СЗ 1 н/о н/о +25.6 +18.0 63 +30 +30 душно 1013.0 1005.4
22 16.06 штиль 0 н/о н/о +24.9 +16.0 58 +28 +28 жарко 1013.1 1005.5
23 16.06 СЗ 2 н/о н/о +25.0 +18.8 68 +30 +30 душно 1013.5 1005.9
00 17.06 СЗ 4 н/о н/о +25.1 +18.7 68 +30 +30 душно 1013.6 1006.0
01 17.06 СЗ 4 н/о н/о +25.1 +19.6 72 +31 +31 очень
душно
1013.8 1006.2
02 17.06 штиль 0 н/о н/о +24.5 +17.2 64 +28 +28 душно 1014.2 1006.6
03 17.06 С 1 н/о н/о +24.8 +20.6 77 +31 +31 очень
душно
1014.2 1006.6
04 17.06 СЗ 1 н/о н/о +24.5 +19.7 75 +30 +30 очень
душно
1014.6 1007.0
05 17.06 СЗ 4 н/о н/о +25.0 +20.0 74 +31 +31 очень
душно
1015.0 1007.4
06 17.06 С 3 н/о н/о +25.4 +19.7 71 +31 +31 очень
душно
1015.6 1008.0 +23.8 505
07 17.06 С 3 н/о н/о +24.7 +20.3 77 +31 +31 очень
душно
1016.1 1008.5
08 17.06 СЗ 2 н/о н/о +25.2 +21.4 79 +32 +32 очень
душно
1016.3 1008.7
09 17.06 СЗ 2 н/о н/о +25.3 +20.3 74 +31 +31 очень
душно
1016.3 1008.7
10 17.06 ЮВ 4 н/о н/о +28.0 +19.5 60 +34 +34 очень
душно
1016.0 1008.4
11 17.06 В 4 н/о н/о +29.1 +17.3 49 +33 +33 очень
душно
1015.6 1008.1
12 17.06 В 3 н/о н/о +29.9 +17.7 48 +34 +34 очень
душно
1015.2 1007.7
13 17.06 В 2 н/о н/о +30.2 +17.9 48 +35 +35 очень
душно
1014.8 1007.3
14 17.06 СВ 2 н/о н/о +29.7 +18.8 52 +35 +35 очень
душно
1014.4 1006.9
15 17.06 С 2 н/о н/о +29.1 +19.9 58 +35 +35 очень
душно
1014.0 1006.5
16 17.06 С 1 н/о н/о +27.5 +18.2 57 +32 +32 очень
душно
1013.7 1006.1
17 17.06 С 1 н/о н/о +28.2 +20.4 63 +35 +35 очень
душно
1013.7 1006.2
18 17.06 штиль 0 н/о н/о +27.8 +19.8 62 +34 +34 очень
душно
1013.5 1005.9 +30.6
19 17.06 В 1 н/о н/о +26.9 +19.2 63 +32 +32 очень
душно
1014.0 1006.4
20 17.06 штиль 0 н/о н/о +26.8 +18.6 61 +32 +32 очень
душно
1014.5 1006.9
21 17.06 штиль 0 н/о н/о +26.3 +20.1 69 +32 +32 очень
душно
1015.1 1007.5
22 17.06 штиль 0 н/о н/о +25.2 +20.2 74 +31 +31 очень
душно
1015.5 1007.9
23 17.06 В 1 н/о н/о +24.9 +20.9 78 +31 +31 очень
душно
1015.8 1008.2
00 18.06 штиль 0 н/о н/о +24.3 +21.7 85 +31 +31 очень
душно
1015.8 1008.1
01 18.06 штиль 0 н/о н/о +24.1 +22.5 91 +32 +32 очень
душно
1015.7 1008.0
02 18.06 штиль 0 н/о н/о +23.7 +22.4 92 +31 +31 очень
душно
1015.5 1007.8
03 18.06 штиль 0 н/о н/о +23.4 +21.6 90 +32 +32 очень
душно
1015.6 1007.9
05 18.06 штиль 0 н/о н/о +23.7 +21.3 86 +30 +30 очень
душно
1015.6 1007.9
06 18.06 штиль 0 н/о н/о +25.0 +21.2 79 +32 +32 очень
душно
1015.6 1008.0 +22.6 0
07 18.06 С 2 н/о н/о +24.5 +21.9 85 +31 +31 очень
душно
1015.9 1008.2
08 18.06 СЗ 2 н/о н/о +24.8 +21.9 84 +32 +32 очень
душно
1015.9 1008.3
09 18.06 С 1 н/о н/о +25.0 +22.4 86 +33 +33 очень
душно
1015.8 1008.2
10 18.06 С 2 н/о н/о +25.4 +23.0 87 +34 +34 очень
душно
1015.6 1008.0

 

Местоположение метеостанции Дезенцано (Италия): широта 45.67 долгота 10.55 высота над уровнем моря 64 м.

В архиве по умолчанию представлена погода в Дезенцано за последнюю неделю. Архивные данные за месяц целиком и за предыдущие месяцы, начиная с января 2011 года, Вы можете получить, выбрав интересующий диапазон дат из раскрывающегося списка и нажав кнопку "Ввод!".


*Определитесь, кто Вы:
робот инопланетянин человек

Внимание! Время в таблицах - всемирное. Для получения местного времени необходимо прибавить поправку, которая равна 1 ч.

Смотрите также архив погоды в соседних городах и на ближайших метеорологических станциях:

Погода в Брешиа (Италия) (35 км)
Погода в Тренто (Италия) (59 км)
Погода на Паганелле (Италия) (65 км)
Погода в Бергамо (Италия) (66 км)
Погода в Роббие (Швейцария) (84 км)
Погода на Пиц Корваче (Швейцария) (101 км)
Погода в Милане (Италия) (102 км)
Погода в Сегл-Марие (Швейцария) (104 км)
Погода в Санта-Мария-Валь-Мюстаире (Швейцария) (104 км)
Погода в Пьяченце (Италия) (105 км)

Пояснения к столбцам:

Ветер - указаны скорость ветра в м/с - средняя за 10 мин, порывы в срок и между сроками (в фигурных скобках) и направление, откуда дует ветер: С - северный, СВ - северо-восточный, В - восточный, ЮВ - юго-восточный, Ю - южный, ЮЗ - юго-западный, З - западный, СЗ - северо-западный.
Видимость - горизонтальная дальность видимости в метрах или километрах. При видимости от 1 до 10 км при отсутствии осадков обычно наблюдается дымка, при ухудшении видимости до 1 км и менее - туман. В сухую погоду видимость может ухудшаться дымом, пылью или мглою.
Явления - указаны атмосферные явления, наблюдавшиеся в срок или в последний час перед сроком; фигурными скобками обозначены явления, наблюдавшиеся между сроками (за 1-3 часа до срока); квадратными скобками обозначены град или гололедные отложения с указанием их диаметра в мм.
Облачность - указаны через наклонную черту общая и нижняя облачность в баллах и высота нижней границы облаков в метрах; квадратными скобками обозначены формы облаков: Ci - перистые, Cs - перисто-слоистые, Cc - перисто-кучевые, Ac - высококучевые, As - высокослоистые, Sc - слоисто-кучевые, Ns - слоисто-дождевые, Cu - кучевые, Cb - кучево-дождевые. Подробнее классификацию облаков см. в Атласе облаков (PDF).
T - Температура воздуха - температура, измеренная на высоте 2 м над землей.
Td - Температура точки росы - температура, при понижении до которой содержащийся в воздухе водяной пар достигнет насыщения.
f - Относительная влажность воздуха - влажноcть воздуха, измеренная на высоте 2 м над землей.
Te - Эффективная температура - температура, которую ощущает одетый по сезону человек в тени. Характеристика душности погоды. При расчете учитывается влияние влажности воздуха и скорости ветра на теплоощущения человека.
Tes - Эффективная температура на солнце - температура, которую ощущает человек, с поправкой на солнечный нагрев. Характеристика знойности погоды. Зависит от высоты солнца над горизонтом, облачности и скорости ветра. Ночью, в пасмурную погоду, а также при ветре 12 м/с и более поправка равна нулю.
P - Атмосферное давление - приведенное к уровню моря атмосферное давление.
Po - Атмосферное давление - измеренное на уровне метеостанции атмосферное давление.
Tmin - Минимальная температура - минимум температуры воздуха на высоте 2 м над землей.
Tmax - Максимальная температура - максимум температуры воздуха на высоте 2 м над землей.
R - Количество осадков - Количество выпавших осадков за период времени, мм. При наведении курсора мыши на число - период времени, за который выпало указанное количество осадков.
R24 - Количество осадков - Количество выпавших осадков за 24 часа, мм.
S - Снежный покров - Высота снежного покрова, см. При наведении курсора мыши на число - состояние снежного покрова и степень покрытия местности в баллах.